Weather in Sulkhara

Russia / Republic of Buryatia     51°44′50″N   110°09′36″E
temp.,
°C
wind,
m/s
gust,
m/s
humid.,
%
clouds,
%
prec.,
mm/h
press.,
hPa
HPBL,
m
15 april, thu
thu1523:00−4w2761100 0.0 1016177
02:00−5wsw2675100 0.0 1015153
05:00−6sw25783 0.0 1014107
08:00−2w47585 0.0 1013769
11:00+3nw473057 0.0 10112509
14:00+4nw4722100 0.0 10103059
17:00+4nw5724100 0.0 10112881
20:000wnw3854100 0.2 1014246
16 april, fri
fri1623:00−4w277616 0.1 1017168
02:00−5w27885 0.1 1020223
05:00−6w37885 0.0 1022209
08:00−2w475730 0.0 1023720
11:00+2wnw5632100 0.0 10211709
14:00+6wnw572882 0.0 10181819
17:00+6wnw5829100 0.0 10171608
20:00+2w374934 0.0 1018162
17 april, sat
sat1723:00−1ssw23625 0.0 101847
02:00−2ssw22627 0.0 101727
05:00−3s22585 0.0 101518
08:00+4ssw133764 0.0 1013251
11:00+11wsw462790 0.0 10081501
14:00+14w46225 0.0 10062169
17:00+14wnw46205 0.0 10052406
20:00+7w22441 0.0 100711
18 april, sun
sun1823:00+4ssw22545 0.0 100812
02:00+3s11596 0.0 100912
05:00+1w1165100 0.0 101010
08:00+4nnw1156100 0.0 1010263
11:00+10nnw11395 0.0 1007942
14:00+13nw443375 0.0 10041594
17:00+13nw563054 0.0 10042019
20:00+8wnw5114445 0.0 1009525
19 april, mon
mon1923:00+3wnw376215 0.0 1015185
02:00+1wnw396445 0.0 1018286
05:00−1wsw237195 0.0 102094
08:00+3wnw353977 0.0 1020709
11:00+8w242738 0.0 10191510
14:00+11w353269 0.0 10151879
17:00+13nw142816 0.0 10132180
20:00+6se22447 0.0 101416